This is the latest recevied weather packets stored in our database for station/object AI9F. If no packets are shown the sender has not sent any weather packets the latest 10 day(s).
| Time | Temp. | Humidity | Pressure | Rain* | Wind** | Luminosity | Snow |
|---|---|---|---|---|---|---|---|
| 1777847275 | 20.56° C | 36% | 1011.3 hPa | 0 mm | - | 178 W/m² | - |
| 1777846974 | 21.11° C | 38% | 1011.1 hPa | 0 mm | - | 276 W/m² | - |
| 1777846671 | 21.11° C | 37% | 1011.4 hPa | 0 mm | - | 298 W/m² | - |
| 1777846369 | 20.56° C | 36% | 1011.2 hPa | 0 mm | - | 314 W/m² | - |
| 1777846065 | 21.11° C | 37% | 1011.4 hPa | 0 mm | - | 328 W/m² | - |
| 1777845763 | 21.11° C | 36% | 1011.5 hPa | 0 mm | - | 353 W/m² | - |
| 1777845459 | 21.11° C | 39% | 1011.6 hPa | 0 mm | - | 367 W/m² | - |
| 1777845156 | 21.11° C | 37% | 1011.8 hPa | 0 mm | - | 389 W/m² | - |
| 1777844854 | 20.56° C | 40% | 1011.7 hPa | 0 mm | - | 396 W/m² | - |
| 1777844551 | 20.56° C | 39% | 1011.6 hPa | 0 mm | - | 421 W/m² | - |
| 1777844249 | 21.11° C | 37% | 1012.2 hPa | 0 mm | - | 441 W/m² | - |
| 1777843946 | 21.11° C | 38% | 1012.1 hPa | 0 mm | - | 460 W/m² | - |
| 1777843643 | 21.11° C | 40% | 1012 hPa | 0 mm | - | 474 W/m² | - |
| 1777843340 | 21.11° C | 39% | 1012.1 hPa | 0 mm | - | 490 W/m² | - |
| 1777843038 | 21.11° C | 38% | 1012.4 hPa | 0 mm | - | 503 W/m² | - |
| 1777842734 | 20.56° C | 37% | 1012.6 hPa | 0 mm | - | 516 W/m² | - |
| 1777842429 | 20.56° C | 38% | 1012.8 hPa | 0 mm | - | 530 W/m² | - |
| 1777842127 | 21.11° C | 38% | 1013 hPa | 0 mm | - | 543 W/m² | - |
| 1777841822 | 20.56° C | 38% | 1012.8 hPa | 0 mm | - | 558 W/m² | - |
| 1777841518 | 20.56° C | 37% | 1013.2 hPa | 0 mm | - | 577 W/m² | - |
| 1777841215 | 20.56° C | 40% | 1013.2 hPa | 0 mm | - | 591 W/m² | - |
| 1777840913 | 20.56° C | 38% | 1013.3 hPa | 0 mm | - | 607 W/m² | - |
| 1777840609 | 20.56° C | 40% | 1013.4 hPa | 0 mm | - | 619 W/m² | - |
| 1777840307 | 20.56° C | 39% | 1013.7 hPa | 0 mm | - | 633 W/m² | - |
| 1777840004 | 20.56° C | 40% | 1013.5 hPa | 0 mm | - | 641 W/m² | - |
* Rain latest hour (hover to see other rain measurements)
** Current wind speed in m/s (hover to see current wind gust speed)